When you browse on this site, cookies collect data to enhance your experience and personalize the content and advertising you see.
Visit our Privacy Policy to learn more. By continuing to use the site, you agree to this use of cookies and data.
  • Em Portugal
  • Lista de países
  • Para 7 dias
  • Temperatura da água
  • Mapa do tempo
  • Widgets de tempo
  • user-avatar
    Iniciar Sessão

    Previsão horária em Vystrelovo

    Hoje, 25 Janeiro, Sábado

    Tempo Temperatura Precipitação Vento Pressão Humidade
    00:00 +1°C° 0 mm 4 m/s 744 mmHg 85%
    01:00 +1°C° 0 mm 4 m/s 744 mmHg 85%
    02:00 +1°C° 0 mm 5 m/s 744 mmHg 86%
    03:00 +1°C° 0 mm 5 m/s 743 mmHg 82%
    04:00 +2°C° 0 mm 5 m/s 743 mmHg 78%
    05:00 +2°C° 0 mm 5 m/s 742 mmHg 75%
    06:00 +1°C° 0 mm 5 m/s 742 mmHg 74%
    07:00 +1°C° 0 mm 5 m/s 743 mmHg 74%
    08:00 +1°C° 0 mm 5 m/s 743 mmHg 74%
    09:00 +1°C° 0 mm 6 m/s 743 mmHg 68%
    10:00 +1°C° 0 mm 6 m/s 744 mmHg 62%
    11:00 -1°C° 0 mm 6 m/s 745 mmHg 57%
    12:00 -1°C° 0 mm 6 m/s 745 mmHg 56%
    13:00 -1°C° 0 mm 6 m/s 745 mmHg 55%
    14:00 -1°C° 0 mm 7 m/s 745 mmHg 54%
    15:00 -1°C° 0 mm 6 m/s 746 mmHg 57%
    16:00 -1°C° 0 mm 5 m/s 747 mmHg 60%
    17:00 -2°C° 0 mm 5 m/s 747 mmHg 63%
    18:00 -2°C° 0 mm 5 m/s 748 mmHg 66%
    19:00 -2°C° 0 mm 4 m/s 748 mmHg 68%
    20:00 -2°C° 0 mm 4 m/s 749 mmHg 70%
    21:00 -2°C° 0 mm 4 m/s 749 mmHg 72%
    22:00 -2°C° 0 mm 4 m/s 750 mmHg 73%
    23:00 -3°C° 0 mm 4 m/s 751 mmHg 75%

    Amanhã, 26 Janeiro, Domingo

    Tempo Temperatura Precipitação Vento Pressão Humidade
    00:00 -2°C° 0 mm 3 m/s 751 mmHg 76%
    01:00 -2°C° 0 mm 3 m/s 752 mmHg 77%
    02:00 -2°C° 0 mm 3 m/s 752 mmHg 77%
    03:00 -2°C° 0 mm 3 m/s 752 mmHg 76%
    04:00 -1°C° 0 mm 3 m/s 752 mmHg 74%
    05:00 -1°C° 0 mm 3 m/s 752 mmHg 72%
    06:00 -1°C° 0 mm 3 m/s 751 mmHg 71%
    07:00 -1°C° 0 mm 4 m/s 751 mmHg 69%
    08:00 -1°C° 0 mm 5 m/s 750 mmHg 68%
    09:00 -1°C° 0 mm 5 m/s 750 mmHg 72%
    10:00 -1°C° 0 mm 6 m/s 750 mmHg 77%
    11:00 +1°C° 0 mm 6 m/s 750 mmHg 82%
    12:00 +1°C° 0 mm 6 m/s 750 mmHg 82%
    13:00 +2°C° 0 mm 6 m/s 750 mmHg 82%
    14:00 +3°C° 0 mm 6 m/s 750 mmHg 82%
    15:00 +2°C° 0 mm 6 m/s 750 mmHg 83%
    16:00 +2°C° 0 mm 5 m/s 750 mmHg 84%
    17:00 +2°C° 0 mm 5 m/s 750 mmHg 86%
    18:00 +2°C° 0 mm 5 m/s 750 mmHg 86%
    19:00 +2°C° 0 mm 5 m/s 750 mmHg 87%
    20:00 +2°C° 0 mm 5 m/s 750 mmHg 88%
    21:00 +3°C° 0 mm 4 m/s 750 mmHg 88%
    22:00 +3°C° 0 mm 4 m/s 750 mmHg 89%
    23:00 +3°C° 0 mm 4 m/s 751 mmHg 89%

    Depois de amanhã, 27 Janeiro, Segunda-feira

    Tempo Temperatura Precipitação Vento Pressão Humidade
    00:00 +3°C° 0 mm 4 m/s 751 mmHg 90%
    01:00 +3°C° 0 mm 4 m/s 751 mmHg 90%
    02:00 +3°C° 0 mm 4 m/s 751 mmHg 91%
    03:00 +3°C° 0.1 mm 3 m/s 751 mmHg 91%
    04:00 +2°C° 0.1 mm 3 m/s 751 mmHg 92%
    05:00 +2°C° 0.1 mm 3 m/s 750 mmHg 93%
    06:00 +3°C° 0.1 mm 3 m/s 750 mmHg 94%
    07:00 +3°C° 0.1 mm 3 m/s 750 mmHg 94%
    08:00 +3°C° 0.1 mm 3 m/s 750 mmHg 94%
    09:00 +4°C° 0.3 mm 2 m/s 750 mmHg 95%
    10:00 +4°C° 0.3 mm 2 m/s 750 mmHg 95%
    11:00 +4°C° 0.3 mm 2 m/s 750 mmHg 95%
    12:00 +4°C° 0.4 mm 2 m/s 750 mmHg 95%
    13:00 +4°C° 0.4 mm 2 m/s 750 mmHg 96%
    14:00 +4°C° 0.4 mm 2 m/s 750 mmHg 96%
    15:00 +4°C° 0.2 mm 2 m/s 750 mmHg 96%
    16:00 +4°C° 0.2 mm 2 m/s 750 mmHg 96%
    17:00 +3°C° 0.2 mm 2 m/s 750 mmHg 96%
    18:00 +3°C° 0.1 mm 2 m/s 749 mmHg 96%
    19:00 +3°C° 0.1 mm 2 m/s 749 mmHg 96%
    20:00 +3°C° 0.1 mm 2 m/s 749 mmHg 96%
    21:00 +3°C° 0.1 mm 2 m/s 749 mmHg 96%
    22:00 +3°C° 0.1 mm 2 m/s 749 mmHg 96%
    23:00 +4°C° 0.1 mm 1 m/s 749 mmHg 97%

    28 Janeiro, Terça-feira

    Tempo Temperatura Precipitação Vento Pressão Humidade
    00:00 +4°C° 0.1 mm 1 m/s 749 mmHg 96%
    01:00 +4°C° 0.1 mm 1 m/s 748 mmHg 96%
    02:00 +4°C° 0.1 mm 1 m/s 748 mmHg 96%
    03:00 +3°C° 0 mm 2 m/s 748 mmHg 95%
    04:00 +3°C° 0 mm 2 m/s 748 mmHg 95%
    05:00 +3°C° 0 mm 2 m/s 747 mmHg 95%
    06:00 +3°C° 0 mm 2 m/s 747 mmHg 95%
    07:00 +2°C° 0 mm 2 m/s 747 mmHg 95%
    08:00 +2°C° 0 mm 2 m/s 747 mmHg 95%
    09:00 +2°C° 0 mm 2 m/s 747 mmHg 93%
    10:00 +2°C° 0 mm 2 m/s 746 mmHg 90%
    11:00 +1°C° 0 mm 3 m/s 746 mmHg 88%
    12:00 +2°C° 0 mm 3 m/s 746 mmHg 88%
    13:00 +2°C° 0 mm 3 m/s 746 mmHg 87%
    14:00 +2°C° 0 mm 3 m/s 745 mmHg 86%
    15:00 +2°C° 0 mm 3 m/s 745 mmHg 89%
    16:00 +2°C° 0 mm 3 m/s 745 mmHg 91%
    17:00 +1°C° 0 mm 3 m/s 745 mmHg 94%
    18:00 +2°C° 0 mm 3 m/s 744 mmHg 93%
    19:00 +2°C° 0 mm 3 m/s 744 mmHg 93%
    20:00 +2°C° 0 mm 3 m/s 744 mmHg 92%
    21:00 +2°C° 0.1 mm 3 m/s 744 mmHg 93%
    22:00 +1°C° 0.1 mm 4 m/s 743 mmHg 93%
    23:00 +1°C° 0.1 mm 4 m/s 743 mmHg 93%

    29 Janeiro, Quarta-feira

    Tempo Temperatura Precipitação Vento Pressão Humidade
    00:00 +1°C° 0.2 mm 4 m/s 743 mmHg 93%
    01:00 +1°C° 0.2 mm 4 m/s 742 mmHg 94%
    02:00 +1°C° 0.2 mm 4 m/s 742 mmHg 94%
    03:00 +1°C° 0 mm 4 m/s 741 mmHg 94%
    04:00 +1°C° 0 mm 4 m/s 741 mmHg 93%
    05:00 +1°C° 0 mm 4 m/s 740 mmHg 92%
    06:00 0°C° 0 mm 4 m/s 740 mmHg 93%
    07:00 0°C° 0 mm 4 m/s 740 mmHg 94%
    08:00 0°C° 0 mm 4 m/s 739 mmHg 95%
    09:00 0°C° 0.2 mm 4 m/s 739 mmHg 95%
    10:00 0°C° 0.2 mm 5 m/s 739 mmHg 94%
    11:00 +1°C° 0.2 mm 5 m/s 739 mmHg 94%
    12:00 +1°C° 0.1 mm 5 m/s 738 mmHg 93%
    13:00 +1°C° 0.1 mm 4 m/s 738 mmHg 93%
    14:00 +1°C° 0.1 mm 4 m/s 737 mmHg 92%
    15:00 +1°C° 0.2 mm 4 m/s 737 mmHg 93%
    16:00 0°C° 0.2 mm 4 m/s 737 mmHg 95%
    17:00 +1°C° 0.2 mm 3 m/s 737 mmHg 96%
    18:00 +1°C° 0.2 mm 3 m/s 737 mmHg 96%
    19:00 +1°C° 0.2 mm 3 m/s 737 mmHg 96%
    20:00 +3°C° 0.2 mm 2 m/s 737 mmHg 96%
    21:00 +2°C° 0.3 mm 2 m/s 737 mmHg 96%
    22:00 +2°C° 0.3 mm 2 m/s 737 mmHg 97%
    23:00 +2°C° 0.3 mm 2 m/s 737 mmHg 97%

    30 Janeiro, Quinta-feira

    Tempo Temperatura Precipitação Vento Pressão Humidade
    00:00 +2°C° 0.5 mm 2 m/s 737 mmHg 97%
    01:00 +1°C° 0.5 mm 3 m/s 737 mmHg 96%
    02:00 0°C° 0.5 mm 3 m/s 737 mmHg 96%
    03:00 0°C° 0.9 mm 3 m/s 737 mmHg 96%
    04:00 -1°C° 0.9 mm 4 m/s 737 mmHg 96%
    05:00 -1°C° 0.9 mm 4 m/s 737 mmHg 96%
    06:00 -1°C° 0.6 mm 4 m/s 737 mmHg 95%
    07:00 -2°C° 0.6 mm 4 m/s 737 mmHg 93%
    08:00 -2°C° 0.6 mm 4 m/s 737 mmHg 91%
    09:00 -2°C° 0.2 mm 4 m/s 737 mmHg 89%
    10:00 -1°C° 0.2 mm 4 m/s 737 mmHg 87%
    11:00 0°C° 0.2 mm 3 m/s 738 mmHg 85%
    12:00 0°C° 0 mm 3 m/s 738 mmHg 83%
    13:00 0°C° 0 mm 3 m/s 738 mmHg 81%
    14:00 0°C° 0 mm 3 m/s 738 mmHg 79%
    15:00 0°C° 0 mm 3 m/s 738 mmHg 82%
    16:00 -1°C° 0 mm 2 m/s 738 mmHg 84%
    17:00 -1°C° 0 mm 2 m/s 738 mmHg 87%
    18:00 -2°C° 0 mm 2 m/s 738 mmHg 88%
    19:00 -2°C° 0 mm 2 m/s 739 mmHg 88%
    20:00 -2°C° 0 mm 2 m/s 739 mmHg 89%
    21:00 -2°C° 0 mm 2 m/s 739 mmHg 90%
    22:00 -1°C° 0 mm 1 m/s 739 mmHg 90%
    23:00 -1°C° 0 mm 1 m/s 739 mmHg 91%
    Mostrar mais